Total_Precipitation_Accumulation
0.50 0.78 1.06 1.11 1.13 1.03 0.86 0.84 0.87 0.80 0.74 0.82 0.84 0.86 0.89 0.89 0.92 0.84 0.67 0.63 0.63 0.63 0.65 0.65 0.68 0.73 0.75 0.73 0.71 0.70 0.74 0.81 0.94 1.14 1.40 1.80 2.02 2.14 2.12 2.12 2.04 1.81 1.59 1.59
0.62 0.63 0.53 0.59 0.63 0.72 0.73 0.79 0.80 0.75 0.65 0.67 0.66 0.69 0.69 0.67 0.62 0.59 0.53 0.49 0.53 0.54 0.62 0.60 0.57 0.59 0.64 0.62 0.64 0.74 0.73 0.78 0.90 1.15 1.42 1.73 2.05 2.10 2.11 2.12 2.09 1.98 1.83 1.81
0.53 0.47 0.43 0.54 0.60 0.67 0.69 0.75 0.74 0.79 0.75 0.66 0.62 0.69 0.68 0.61 0.51 0.45 0.42 0.41 0.44 0.44 0.51 0.54 0.53 0.52 0.56 0.53 0.50 0.61 0.70 0.81 1.07 1.37 1.62 1.77 2.02 2.10 2.14 2.09 2.10 2.14 2.08 1.97
0.58 0.44 0.43 0.54 0.54 0.55 0.74 0.52 0.48 0.55 0.81 0.86 0.65 0.80 0.66 0.54 0.56 0.50 0.44 0.40 0.41 0.43 0.44 0.45 0.49 0.50 0.47 0.43 0.40 0.47 0.58 0.81 1.17 1.51 1.72 1.92 2.24 2.29 2.19 2.19 2.15 2.16 2.19 2.17
0.56 0.41 0.43 0.49 0.42 0.40 0.53 0.43 0.43 0.49 0.67 0.73 0.56 0.58 0.59 0.52 0.57 0.56 0.50 0.47 0.42 0.38 0.35 0.36 0.38 0.40 0.41 0.44 0.44 0.48 0.64 0.90 1.21 1.44 1.69 2.03 2.22 2.28 2.36 2.24 2.20 2.19 2.24 2.26
0.47 0.34 0.35 0.38 0.34 0.33 0.38 0.47 0.54 0.55 0.67 0.71 0.39 0.46 0.58 0.50 0.42 0.44 0.46 0.45 0.39 0.35 0.33 0.35 0.38 0.39 0.42 0.45 0.51 0.62 0.79 0.96 1.22 1.43 1.67 1.85 2.05 2.16 2.25 2.30 2.21 2.17 2.24 2.33
0.46 0.36 0.28 0.26 0.36 0.36 0.39 0.69 0.94 0.93 0.93 0.72 0.33 0.44 0.58 0.41 0.31 0.33 0.37 0.40 0.38 0.40 0.42 0.47 0.49 0.56 0.64 0.67 0.70 0.80 0.92 1.08 1.22 1.35 1.49 1.56 1.69 1.84 1.83 1.97 2.02 2.12 2.13 2.17
0.42 0.40 0.25 0.22 0.29 0.36 0.35 0.54 0.89 0.95 0.80 0.63 0.46 0.64 0.64 0.42 0.35 0.35 0.36 0.41 0.43 0.51 0.58 0.68 0.76 0.85 0.94 0.96 0.98 1.05 1.11 1.13 1.19 1.26 1.33 1.38 1.45 1.53 1.55 1.55 1.53 1.68 1.84 1.85
0.39 0.36 0.19 0.20 0.23 0.29 0.34 0.40 0.47 0.61 0.53 0.54 0.54 0.66 0.61 0.45 0.42 0.42 0.44 0.49 0.57 0.74 0.83 0.93 1.05 1.10 1.09 1.09 1.08 1.12 1.16 1.15 1.15 1.20 1.21 1.14 1.14 1.22 1.30 1.29 1.33 1.36 1.42 1.41
0.37 0.40 0.24 0.20 0.27 0.26 0.31 0.42 0.56 0.84 0.94 0.82 0.67 0.77 0.77 0.60 0.50 0.47 0.54 0.65 0.81 1.06 1.19 1.31 1.43 1.38 1.31 1.30 1.36 1.28 1.21 1.14 1.11 1.12 1.17 1.08 1.05 1.10 1.12 1.08 1.12 1.10 1.10 1.09
0.30 0.45 0.36 0.25 0.25 0.28 0.34 0.46 0.63 0.90 0.99 1.14 1.18 1.22 0.93 0.74 0.68 0.76 0.90 1.01 1.20 1.44 1.59 1.69 1.70 1.62 1.45 1.32 1.33 1.30 1.18 1.08 0.98 0.99 1.08 1.10 1.03 1.05 1.07 1.04 0.97 0.93 0.92 0.97
0.28 0.45 0.45 0.28 0.22 0.26 0.42 0.60 0.81 1.26 1.23 1.11 1.30 1.43 1.03 0.84 0.82 0.85 0.94 1.11 1.32 1.43 1.51 1.54 1.50 1.50 1.39 1.29 1.21 1.19 1.10 0.95 0.91 0.96 1.01 1.06 0.97 0.94 0.98 0.96 0.98 0.88 0.81 0.81
0.37 0.53 0.66 0.56 0.50 0.48 0.57 0.62 0.73 0.90 1.11 1.20 1.40 1.56 1.09 0.86 0.83 0.87 0.99 1.09 1.13 1.12 1.21 1.30 1.35 1.24 1.19 1.13 1.07 1.19 1.21 1.08 1.04 1.07 1.18 1.13 0.99 0.95 0.96 0.91 0.98 0.90 0.84 0.83
0.43 0.50 0.61 0.74 0.72 0.69 0.72 0.63 0.58 0.75 1.03 1.08 1.14 1.23 1.00 0.89 0.84 0.82 0.89 0.94 1.02 1.04 1.07 1.09 1.14 1.09 1.10 1.06 1.03 1.16 1.20 1.19 1.23 1.30 1.32 1.20 1.08 0.97 0.91 0.88 0.92 0.92 0.90 0.89
0.37 0.37 0.32 0.33 0.32 0.40 0.60 0.71 0.61 0.65 0.76 1.02 0.92 0.80 0.79 0.75 0.75 0.76 0.81 0.84 0.85 0.90 0.90 0.83 0.81 0.82 0.88 0.88 0.83 0.90 1.00 1.08 1.19 1.25 1.21 1.15 1.03 0.89 0.82 0.85 0.84 0.88 0.94 0.92
0.29 0.27 0.21 0.17 0.16 0.26 0.51 0.61 0.61 0.59 0.59 0.63 0.57 0.56 0.46 0.44 0.50 0.55 0.62 0.60 0.62 0.67 0.67 0.63 0.59 0.58 0.63 0.56 0.58 0.62 0.73 0.89 1.08 1.15 1.07 0.96 0.89 0.87 0.79 0.76 0.74 0.76 0.80 0.82
0.26 0.30 0.33 0.25 0.19 0.28 0.51 0.52 0.55 0.42 0.29 0.29 0.37 0.38 0.30 0.31 0.40 0.46 0.54 0.55 0.50 0.53 0.55 0.57 0.55 0.50 0.52 0.48 0.50 0.58 0.66 0.80 0.90 0.92 0.87 0.79 0.75 0.73 0.66 0.64 0.67 0.72 0.74 0.76
0.22 0.34 0.47 0.38 0.36 0.58 0.69 0.54 0.47 0.39 0.24 0.17 0.20 0.24 0.25 0.28 0.35 0.37 0.43 0.51 0.46 0.42 0.45 0.50 0.52 0.49 0.51 0.55 0.58 0.68 0.75 0.75 0.78 0.82 0.81 0.76 0.70 0.65 0.60 0.56 0.59 0.70 0.73 0.70
0.24 0.36 0.52 0.50 0.51 0.55 0.52 0.37 0.35 0.44 0.42 0.20 0.16 0.18 0.18 0.21 0.28 0.29 0.31 0.36 0.36 0.31 0.28 0.29 0.32 0.34 0.40 0.44 0.50 0.52 0.54 0.56 0.57 0.61 0.68 0.64 0.56 0.58 0.61 0.58 0.63 0.67 0.67 0.69
0.37 0.39 0.56 0.56 0.58 0.62 0.44 0.21 0.18 0.34 0.57 0.26 0.13 0.12 0.11 0.15 0.23 0.22 0.18 0.19 0.20 0.20 0.18 0.16 0.16 0.19 0.22 0.27 0.39 0.45 0.42 0.36 0.36 0.39 0.45 0.48 0.45 0.48 0.54 0.63 0.69 0.67 0.63 0.68
0.33 0.40 0.52 0.64 0.75 0.80 0.54 0.27 0.22 0.48 0.59 0.26 0.12 0.09 0.10 0.11 0.12 0.13 0.13 0.14 0.13 0.13 0.16 0.16 0.15 0.15 0.19 0.24 0.29 0.32 0.38 0.34 0.32 0.34 0.35 0.37 0.37 0.40 0.48 0.53 0.51 0.52 0.55 0.60
0.46 0.57 0.68 0.81 1.02 1.12 0.70 0.47 0.47 0.44 0.28 0.18 0.12 0.10 0.11 0.12 0.10 0.10 0.12 0.12 0.11 0.10 0.12 0.13 0.14 0.16 0.21 0.22 0.22 0.24 0.26 0.27 0.29 0.30 0.32 0.32 0.29 0.30 0.32 0.37 0.42 0.44 0.46 0.48
0.45 0.71 0.89 0.87 0.88 0.77 0.55 0.47 0.38 0.30 0.25 0.17 0.16 0.14 0.12 0.11 0.09 0.10 0.10 0.10 0.10 0.09 0.10 0.12 0.17 0.20 0.23 0.23 0.21 0.21 0.22 0.25 0.30 0.30 0.30 0.30 0.29 0.28 0.30 0.33 0.36 0.41 0.45 0.48
0.26 0.33 0.40 0.40 0.41 0.37 0.31 0.27 0.25 0.22 0.21 0.16 0.14 0.14 0.16 0.15 0.13 0.12 0.11 0.12 0.12 0.11 0.11 0.13 0.18 0.20 0.23 0.23 0.23 0.24 0.24 0.24 0.26 0.26 0.27 0.27 0.28 0.30 0.30 0.33 0.38 0.44 0.44 0.40
0.22 0.22 0.24 0.24 0.20 0.21 0.20 0.20 0.20 0.19 0.16 0.13 0.12 0.13 0.17 0.17 0.14 0.12 0.13 0.16 0.16 0.14 0.13 0.14 0.16 0.21 0.22 0.23 0.24 0.26 0.25 0.23 0.23 0.24 0.23 0.23 0.26 0.28 0.29 0.27 0.29 0.36 0.38 0.36
0.18 0.23 0.24 0.20 0.13 0.15 0.18 0.16 0.15 0.17 0.15 0.13 0.14 0.16 0.15 0.13 0.12 0.13 0.13 0.18 0.19 0.16 0.14 0.15 0.16 0.19 0.20 0.21 0.25 0.27 0.30 0.28 0.25 0.24 0.23 0.24 0.25 0.27 0.27 0.26 0.26 0.29 0.30 0.34